Home   Weather   Post Falls   Past weeks
Flag for USA

Past Weather in Post Falls, Idaho, USA — Yesterday and Last 2 Weeks

Now
48 °F

Overcast.


Feels Like: 45 °F
Forecast: 54 / 47 °F
Wind: 7 mph from Southwest

Location: Coeur d'Alene Weather Reporting System

Current Time: Oct 17, 2019 at 11:03:37 am

Latest Report: Oct 17, 2019 at 9:56 am


Visibility: 10 mi

Pressure: 29.75 "Hg (27.45 "Hg at 664m altitude)

Humidity: 89%

Dew Point: 45 °F

Location of Post FallsLocation

Past Weather in Post Falls — Graph

°F

Post Falls Temperature Yesterday

Maximum temperature yesterday: 62 °F (at 2:56 pm)
Minimum temperature yesterday: 43 °F (at 1:56 am)
Average temperature yesterday: 50 °F

High & Low Weather Summary for the Past Weeks

 TemperatureHumidityPressure
High65 °F (Oct 7, 2:56 pm)100% (Oct 3, 11:56 pm)30.63 "Hg (Oct 3, 11:56 pm)
Low17 °F (Oct 10, 6:56 am)29% (Oct 8, 2:56 pm)29.62 "Hg (Oct 8, 4:32 am)
Average43 °F75%30.15 "Hg
* Reported Oct 2 9:03 am — Oct 17 9:56 am, Post Falls. Weather by CustomWeather, © 2019

Note: Actual official high and low records may vary slightly from our data, if they occured in-between our weather recording intervals... More about our weather records

Advertising

Post Falls Weather History for the Previous 24 Hours

Scroll right to see more
 ConditionsComfort  
Time TempWeatherWind HumidityBarometerVisibility
9:56 am
Thu, Oct 17
48 °FOvercast.7 mph89%29.75 "Hg10 mi
8:56 am46 °FLight rain. Overcast.6 mph93%29.73 "Hg10 mi
6:56 am47 °FOvercast.6 mph90%29.72 "Hg10 mi
5:56 am47 °FLight rain. Partly cloudy.7 mph93%29.72 "Hg10 mi
4:56 am47 °FLight rain. Mostly cloudy.No wind93%29.72 "Hg10 mi
4:19 am46 °FLight rain. Overcast.7 mph93%29.69 "Hg10 mi
3:56 am49 °FLight rain. Mostly cloudy.10 mph86%29.73 "Hg10 mi
2:56 am49 °FLight rain. Mostly cloudy.8 mph84%29.72 "Hg10 mi
1:56 am46 °FMostly cloudy.3 mph86%29.73 "Hg10 mi
12:56 am48 °FPassing clouds.No wind77%29.72 "Hg8 mi
11:56 pm
Wed, Oct 16
48 °FPassing clouds.No wind77%29.74 "Hg10 mi
10:56 pm49 °FClear.5 mph71%29.75 "Hg10 mi
9:56 pm49 °FPassing clouds.5 mph71%29.76 "Hg10 mi
8:56 pm49 °FOvercast.5 mph71%29.77 "Hg10 mi
7:56 pm51 °FPassing clouds.6 mph63%29.78 "Hg10 mi
6:56 pm51 °FClear.6 mph66%29.78 "Hg10 mi
5:56 pm55 °FSunny.5 mph57%29.78 "Hg10 mi
4:56 pm58 °FSunny.6 mph56%29.79 "Hg10 mi
3:56 pm60 °FSunny.8 mph49%29.82 "Hg10 mi
2:56 pm62 °FSunny.7 mph44%29.83 "Hg10 mi
1:56 pm61 °FSunny.8 mph44%29.85 "Hg10 mi
12:56 pm58 °FSunny.8 mph50%29.88 "Hg10 mi
11:56 am55 °FSunny.12 mph53%29.92 "Hg10 mi
Weather by CustomWeather, © 2019

See weather overview